| time (UTC) | temp F | wind direction | speed MPH | gust MPH | rain 1hr in | rain 24hr in | rain mn in | humidity % | barometer mb |
| 20260831144737 | 69 | 11 | 2.0 | 3.0 | 0.00 | 0.00 | 0.00 | 71 | 1023.8 |
| 20260831144337 | 70 | 105 | 4.0 | 7.0 | 0.00 | 0.00 | 0.00 | 69 | 1023.8 |
| 20260831143736 | 69 | 336 | 2.0 | 3.0 | 0.00 | 0.00 | 0.00 | 73 | 1023.8 |
| 20260831143237 | 69 | 323 | 2.0 | 3.0 | 0.00 | 0.00 | 0.00 | 76 | 1023.6 |
| 20260831142235 | 69 | 25 | 2.0 | 3.0 | 0.00 | 0.00 | 0.00 | 76 | 1023.8 |
| 20260831141735 | 69 | 82 | 3.0 | 5.0 | 0.00 | 0.00 | 0.00 | 77 | 1023.8 |
| 20260831141237 | 69 | 321 | 1.0 | 2.0 | 0.00 | 0.00 | 0.00 | 77 | 1023.8 |
| 20260831140736 | 68 | 349 | 2.0 | 3.0 | 0.00 | 0.00 | 0.00 | 76 | 1023.8 |
| 20260831140234 | 68 | 207 | 4.0 | 5.0 | 0.00 | 0.00 | 0.00 | 78 | 1023.8 |
| 20260831135733 | 68 | 162 | 4.0 | 6.0 | 0.00 | 0.00 | 0.00 | 79 | 1023.8 |
| 20260831135236 | 69 | 202 | 3.0 | 5.0 | 0.00 | 0.00 | 0.00 | 79 | 1023.5 |
| 20260831134733 | 68 | 305 | 2.0 | 2.0 | 0.00 | 0.00 | 0.00 | 79 | 1023.8 |
| 20260831134332 | 67 | 324 | 4.0 | 5.0 | 0.00 | 0.00 | 0.00 | 81 | 1023.5 |
| 20260831133732 | 68 | 6 | 2.0 | 3.0 | 0.00 | 0.00 | 0.00 | 83 | 1023.8 |
| 20260831133233 | 65 | 332 | 0.0 | 1.0 | 0.00 | 0.00 | 0.00 | 87 | 1023.6 |
| 20260831132732 | 66 | 339 | 3.0 | 3.0 | 0.00 | 0.00 | 0.00 | 86 | 1023.8 |
| 20260831132231 | 66 | 334 | 3.0 | 3.0 | 0.00 | 0.00 | 0.00 | 84 | 1023.6 |
| 20260831131730 | 66 | 14 | 2.0 | 3.0 | 0.00 | 0.00 | 0.00 | 89 | 1023.5 |
| 20260831131229 | 66 | 316 | 2.0 | 2.0 | 0.00 | 0.00 | 0.00 | 88 | 1023.5 |
| 20260831130731 | 65 | 335 | 3.0 | 6.0 | 0.00 | 0.00 | 0.00 | 83 | 1023.5 |
| 20260831130232 | 65 | 351 | 2.0 | 3.0 | 0.00 | 0.00 | 0.00 | 85 | 1023.5 |
| 20260831125729 | 65 | 317 | 3.0 | 5.0 | 0.00 | 0.00 | 0.00 | 86 | 1023.5 |
| 20260831125230 | 65 | 311 | 2.0 | 3.0 | 0.00 | 0.00 | 0.00 | 89 | 1023.6 |
| 20260831124729 | 64 | 324 | 1.0 | 2.0 | 0.00 | 0.00 | 0.00 | 91 | 1023.5 |
| 20260831124229 | 63 | 0.0 | 0.0 | 0.00 | 0.00 | 0.00 | 93 | 1023.5 | |
| 20260831123733 | 63 | 335 | 1.0 | 2.0 | 0.00 | 0.00 | 0.00 | 94 | 1023.5 |
| 20260831123229 | 63 | 0.0 | 0.0 | 0.00 | 0.00 | 0.00 | 98 | 1023.5 | |
| 20260831122227 | 62 | 320 | 0.0 | 1.0 | 0.00 | 0.00 | 0.00 | 99 | 1023.5 |
| 20260831111723 | 58 | 325 | 2.0 | 2.0 | 0.00 | 0.00 | 0.00 | 99 | 1023.1 |
| 20260831111222 | 57 | 328 | 2.0 | 2.0 | 0.00 | 0.00 | 0.00 | 99 | 1022.8 |
| 20260831110723 | 57 | 331 | 1.0 | 1.0 | 0.00 | 0.00 | 0.00 | 99 | 1022.8 |
| 20260831110222 | 57 | 0.0 | 0.0 | 0.00 | 0.00 | 0.00 | 99 | 1022.8 | |
| 20260831105722 | 57 | 331 | 1.0 | 1.0 | 0.00 | 0.00 | 0.00 | 99 | 1022.8 |
| 20260831105222 | 57 | 331 | 1.0 | 1.0 | 0.00 | 0.00 | 0.00 | 99 | 1022.9 |
| 20260831104720 | 57 | 333 | 1.0 | 2.0 | 0.00 | 0.00 | 0.00 | 99 | 1022.4 |
| 20260831104222 | 57 | 329 | 1.0 | 1.0 | 0.00 | 0.00 | 0.00 | 99 | 1022.8 |
| 20260831103720 | 57 | 326 | 1.0 | 1.0 | 0.00 | 0.00 | 0.00 | 99 | 1022.8 |
| 20260831103219 | 58 | 324 | 2.0 | 3.0 | 0.00 | 0.00 | 0.00 | 99 | 1022.8 |
| 20260831102722 | 57 | 318 | 2.0 | 5.0 | 0.00 | 0.00 | 0.00 | 99 | 1022.8 |
| 20260831102321 | 57 | 322 | 2.0 | 2.0 | 0.00 | 0.00 | 0.00 | 99 | 1022.8 |
| 20260831101720 | 57 | 325 | 2.0 | 3.0 | 0.00 | 0.00 | 0.00 | 99 | 1022.4 |
| 20260831101218 | 57 | 321 | 2.0 | 2.0 | 0.00 | 0.00 | 0.00 | 99 | 1022.4 |
| 20260831100719 | 56 | 326 | 2.0 | 3.0 | 0.00 | 0.00 | 0.00 | 99 | 1022.8 |
| 20260831100218 | 56 | 324 | 2.0 | 2.0 | 0.00 | 0.00 | 0.00 | 99 | 1022.8 |
| 20260831095818 | 56 | 326 | 1.0 | 2.0 | 0.00 | 0.00 | 0.00 | 99 | 1022.8 |
| 20260831094759 | 56 | 327 | 1.0 | 2.0 | 0.00 | 0.00 | 0.00 | 99 | 1022.8 |
| 20260831074238 | 58 | 321 | 2.0 | 2.0 | 0.00 | 0.00 | 0.00 | 99 | 1021.9 |
| 20260831073740 | 58 | 322 | 2.0 | 2.0 | 0.00 | 0.00 | 0.00 | 99 | 1021.7 |
| 20260831073339 | 58 | 328 | 2.0 | 2.0 | 0.00 | 0.00 | 0.00 | 99 | 1021.7 |
| 20260831072803 | 58 | 326 | 2.0 | 2.0 | 0.00 | 0.00 | 0.00 | 99 | 1021.7 |
| 20260831072238 | 58 | 322 | 2.0 | 2.0 | 0.00 | 0.00 | 0.00 | 99 | 1021.7 |
| 20260831071737 | 58 | 323 | 2.0 | 2.0 | 0.00 | 0.00 | 0.00 | 99 | 1021.7 |
| 20260831071237 | 59 | 324 | 2.0 | 2.0 | 0.00 | 0.00 | 0.00 | 99 | 1021.4 |
| 20260831070736 | 59 | 322 | 2.0 | 2.0 | 0.00 | 0.00 | 0.00 | 99 | 1021.7 |
| 20260831070237 | 59 | 325 | 2.0 | 2.0 | 0.00 | 0.00 | 0.00 | 99 | 1021.7 |
| 20260831064735 | 59 | 327 | 1.0 | 2.0 | 0.00 | 0.00 | 0.00 | 99 | 1021.7 |
| 20260831063736 | 59 | 333 | 2.0 | 2.0 | 0.00 | 0.00 | 0.00 | 99 | 1021.7 |
| 20260831063234 | 59 | 333 | 2.0 | 2.0 | 0.00 | 0.00 | 0.00 | 99 | 1021.5 |
| 20260831062738 | 59 | 322 | 2.0 | 2.0 | 0.00 | 0.00 | 0.00 | 99 | 1021.7 |
| 20260831061734 | 59 | 320 | 2.0 | 2.0 | 0.00 | 0.00 | 0.00 | 99 | 1021.7 |
| 20260831061233 | 59 | 322 | 2.0 | 2.0 | 0.00 | 0.00 | 0.00 | 99 | 1021.7 |
| 20260831060732 | 59 | 318 | 1.0 | 2.0 | 0.00 | 0.00 | 0.00 | 99 | 1021.7 |
| 20260831060233 | 59 | 0.0 | 0.0 | 0.00 | 0.00 | 0.00 | 99 | 1021.9 | |
| 20260831055732 | 59 | 332 | 2.0 | 2.0 | 0.00 | 0.00 | 0.00 | 99 | 1021.7 |
| 20260831055232 | 59 | 331 | 1.0 | 2.0 | 0.00 | 0.00 | 0.00 | 99 | 1021.7 |
| 20260831054732 | 59 | 326 | 2.0 | 2.0 | 0.00 | 0.00 | 0.00 | 99 | 1021.7 |
| 20260831054230 | 59 | 329 | 2.0 | 2.0 | 0.00 | 0.00 | 0.00 | 99 | 1021.7 |
| 20260831053731 | 59 | 324 | 1.0 | 2.0 | 0.00 | 0.00 | 0.00 | 99 | 1021.5 |
| 20260831053230 | 59 | 328 | 2.0 | 2.0 | 0.00 | 0.00 | 0.00 | 99 | 1021.4 |
| 20260831052733 | 59 | 323 | 1.0 | 2.0 | 0.00 | 0.00 | 0.00 | 99 | 1021.4 |
| 20260831052229 | 60 | 322 | 1.0 | 1.0 | 0.00 | 0.00 | 0.00 | 99 | 1021.5 |
| 20260831051728 | 60 | 323 | 1.0 | 1.0 | 0.00 | 0.00 | 0.00 | 99 | 1021.4 |
| 20260831051230 | 60 | 328 | 1.0 | 1.0 | 0.00 | 0.00 | 0.00 | 99 | 1021.4 |
| 20260831050729 | 60 | 322 | 1.0 | 2.0 | 0.00 | 0.00 | 0.00 | 99 | 1021.4 |
| 20260831050227 | 60 | 324 | 1.0 | 1.0 | 0.00 | 0.00 | 0.00 | 99 | 1021.4 |
| 20260831045726 | 60 | 324 | 1.0 | 1.0 | 0.00 | 0.00 | 0.00 | 98 | 1021.4 |
| 20260831045228 | 61 | 0.0 | 0.0 | 0.00 | 0.00 | 0.00 | 98 | 1021.0 | |
| 20260831044727 | 61 | 331 | 1.0 | 2.0 | 0.00 | 0.00 | 0.00 | 98 | 1021.4 |
| 20260831044226 | 61 | 331 | 0.0 | 1.0 | 0.00 | 0.00 | 0.00 | 98 | 1021.4 |
| 20260831043725 | 61 | 330 | 1.0 | 1.0 | 0.00 | 0.00 | 0.00 | 97 | 1021.4 |
| 20260831043226 | 61 | 331 | 1.0 | 2.0 | 0.00 | 0.00 | 0.00 | 97 | 1021.4 |
| 20260831042726 | 61 | 326 | 1.0 | 1.0 | 0.00 | 0.00 | 0.00 | 96 | 1021.4 |
| 20260831042225 | 62 | 328 | 1.0 | 1.0 | 0.00 | 0.00 | 0.00 | 96 | 1021.0 |
| 20260831041726 | 62 | 0.0 | 0.0 | 0.00 | 0.00 | 0.00 | 95 | 1021.0 | |
| 20260831040724 | 62 | 332 | 1.0 | 1.0 | 0.00 | 0.00 | 0.00 | 95 | 1021.0 |
| 20260831040324 | 62 | 329 | 1.0 | 1.0 | 0.00 | 0.00 | 0.00 | 95 | 1021.0 |
| 20260831035725 | 63 | 326 | 1.0 | 1.0 | 0.00 | 0.00 | 0.00 | 94 | 1021.0 |
| 20260831034728 | 63 | 328 | 1.0 | 1.0 | 0.00 | 0.00 | 0.00 | 93 | 1021.0 |
| 20260831034222 | 63 | 341 | 3.0 | 5.0 | 0.00 | 0.00 | 0.00 | 92 | 1021.2 |
| 20260831033826 | 64 | 331 | 1.0 | 1.0 | 0.00 | 0.00 | 0.00 | 92 | 1021.4 |
| 20260831033223 | 63 | 329 | 1.0 | 2.0 | 0.00 | 0.00 | 0.00 | 92 | 1021.0 |
| 20260831032722 | 63 | 331 | 1.0 | 1.0 | 0.00 | 0.00 | 0.00 | 92 | 1021.0 |
| 20260831032221 | 63 | 329 | 0.0 | 1.0 | 0.00 | 0.00 | 0.00 | 92 | 1021.0 |
| 20260831031723 | 64 | 322 | 1.0 | 2.0 | 0.00 | 0.00 | 0.00 | 91 | 1021.0 |
| 20260831031221 | 64 | 330 | 1.0 | 2.0 | 0.00 | 0.00 | 0.00 | 91 | 1021.0 |
| 20260831030721 | 65 | 335 | 1.0 | 1.0 | 0.00 | 0.00 | 0.00 | 89 | 1021.0 |
| 20260831030220 | 65 | 341 | 1.0 | 1.0 | 0.00 | 0.00 | 0.00 | 90 | 1021.0 |
| 20260831025821 | 65 | 335 | 2.0 | 2.0 | 0.00 | 0.00 | 0.00 | 89 | 1021.2 |
| 20260831025220 | 65 | 348 | 2.0 | 5.0 | 0.00 | 0.00 | 0.00 | 89 | 1021.0 |
| 20260831024719 | 65 | 336 | 1.0 | 1.0 | 0.00 | 0.00 | 0.00 | 88 | 1021.0 |
| 20260831024218 | 65 | 332 | 1.0 | 2.0 | 0.00 | 0.00 | 0.00 | 90 | 1021.0 |
| 20260831023718 | 65 | 330 | 0.0 | 1.0 | 0.00 | 0.00 | 0.00 | 89 | 1021.2 |
| 20260831023219 | 65 | 328 | 0.0 | 1.0 | 0.00 | 0.00 | 0.00 | 90 | 1021.0 |
| 20260831022718 | 65 | 316 | 2.0 | 2.0 | 0.00 | 0.00 | 0.00 | 89 | 1021.0 |
| 20260831022217 | 65 | 341 | 1.0 | 2.0 | 0.00 | 0.00 | 0.00 | 89 | 1021.2 |
| 20260831021718 | 66 | 336 | 0.0 | 1.0 | 0.00 | 0.00 | 0.00 | 89 | 1021.0 |
| 20260831021218 | 66 | 331 | 2.0 | 3.0 | 0.00 | 0.00 | 0.00 | 89 | 1020.7 |
| 20260831020717 | 66 | 327 | 3.0 | 5.0 | 0.00 | 0.00 | 0.00 | 88 | 1020.7 |
| 20260831020216 | 66 | 338 | 2.0 | 5.0 | 0.00 | 0.00 | 0.00 | 87 | 1021.0 |
| 20260831015745 | 66 | 333 | 4.0 | 5.0 | 0.00 | 0.00 | 0.00 | 88 | 1021.0 |
| 20260831015246 | 66 | 336 | 3.0 | 5.0 | 0.00 | 0.00 | 0.00 | 88 | 1020.7 |
| 20260831014747 | 66 | 328 | 3.0 | 5.0 | 0.00 | 0.00 | 0.00 | 88 | 1020.7 |
| 20260831013744 | 66 | 334 | 2.0 | 3.0 | 0.00 | 0.00 | 0.00 | 88 | 1020.7 |
| 20260831013245 | 66 | 331 | 3.0 | 5.0 | 0.00 | 0.00 | 0.00 | 88 | 1020.7 |
| 20260831012744 | 66 | 328 | 2.0 | 5.0 | 0.00 | 0.00 | 0.00 | 88 | 1020.7 |
| 20260831012244 | 66 | 333 | 2.0 | 2.0 | 0.00 | 0.00 | 0.00 | 88 | 1020.7 |
| 20260831011744 | 67 | 347 | 0.0 | 1.0 | 0.00 | 0.00 | 0.00 | 88 | 1020.7 |
| 20260831011244 | 67 | 346 | 2.0 | 3.0 | 0.00 | 0.00 | 0.00 | 88 | 1020.3 |
| 20260831010843 | 67 | 325 | 2.0 | 5.0 | 0.00 | 0.00 | 0.00 | 88 | 1020.3 |
| 20260831010242 | 67 | 308 | 3.0 | 5.0 | 0.00 | 0.00 | 0.00 | 88 | 1020.3 |
| 20260831005242 | 67 | 343 | 3.0 | 5.0 | 0.00 | 0.00 | 0.00 | 87 | 1020.7 |
| 20260831004742 | 67 | 327 | 1.0 | 2.0 | 0.00 | 0.00 | 0.00 | 88 | 1020.3 |
| 20260831003742 | 67 | 325 | 3.0 | 3.0 | 0.00 | 0.00 | 0.00 | 88 | 1020.0 |
| 20260831003241 | 67 | 305 | 4.0 | 6.0 | 0.00 | 0.00 | 0.00 | 89 | 1020.0 |
| 20260831002740 | 67 | 340 | 2.0 | 3.0 | 0.00 | 0.00 | 0.00 | 89 | 1020.0 |
| 20260831002240 | 67 | 332 | 4.0 | 7.0 | 0.00 | 0.00 | 0.00 | 90 | 1020.0 |
| 20260831001839 | 67 | 324 | 1.0 | 2.0 | 0.00 | 0.00 | 0.00 | 90 | 1020.0 |
| 20260831001239 | 67 | 312 | 1.0 | 2.0 | 0.00 | 0.00 | 0.00 | 90 | 1020.0 |
| 20260831000739 | 67 | 320 | 1.0 | 2.0 | 0.00 | 0.00 | 0.00 | 89 | 1019.6 |
| 20260831000238 | 68 | 344 | 2.0 | 3.0 | 0.00 | 0.00 | 0.00 | 88 | 1019.6 |
| 20260830235737 | 68 | 313 | 3.0 | 7.0 | 0.00 | 0.00 | 0.00 | 86 | 1019.6 |
| 20260830235238 | 68 | 296 | 4.0 | 7.0 | 0.00 | 0.00 | 0.00 | 86 | 1019.6 |
| 20260830234737 | 69 | 326 | 1.0 | 1.0 | 0.00 | 0.00 | 0.00 | 85 | 1019.6 |
| 20260830234236 | 69 | 0.0 | 0.0 | 0.00 | 0.00 | 0.00 | 84 | 1019.6 | |
| 20260830233735 | 69 | 325 | 1.0 | 2.0 | 0.00 | 0.00 | 0.00 | 83 | 1019.6 |
| 20260830233237 | 70 | 331 | 3.0 | 3.0 | 0.00 | 0.00 | 0.00 | 82 | 1019.3 |
| 20260830232736 | 70 | 331 | 3.0 | 6.0 | 0.00 | 0.00 | 0.00 | 81 | 1019.3 |
| 20260830232235 | 70 | 330 | 3.0 | 5.0 | 0.00 | 0.00 | 0.00 | 80 | 1019.4 |
| 20260830231734 | 70 | 332 | 1.0 | 3.0 | 0.00 | 0.00 | 0.00 | 80 | 1019.3 |
| 20260830231236 | 70 | 334 | 1.0 | 2.0 | 0.00 | 0.00 | 0.00 | 80 | 1019.3 |
| 20260830230736 | 70 | 0.0 | 0.0 | 0.00 | 0.00 | 0.00 | 80 | 1019.3 | |
| 20260830230335 | 70 | 335 | 0.0 | 1.0 | 0.00 | 0.00 | 0.00 | 79 | 1019.3 |
| 20260830225234 | 71 | 322 | 1.0 | 2.0 | 0.00 | 0.00 | 0.00 | 80 | 1019.3 |
| 20260830224733 | 71 | 333 | 1.0 | 1.0 | 0.00 | 0.00 | 0.00 | 78 | 1019.3 |
| 20260830224233 | 71 | 329 | 2.0 | 3.0 | 0.00 | 0.00 | 0.00 | 78 | 1019.3 |
| 20260830223734 | 71 | 344 | 1.0 | 2.0 | 0.00 | 0.00 | 0.00 | 79 | 1019.3 |
| 20260830223233 | 71 | 324 | 2.0 | 3.0 | 0.00 | 0.00 | 0.00 | 77 | 1019.3 |
| 20260830222732 | 72 | 328 | 1.0 | 2.0 | 0.00 | 0.00 | 0.00 | 77 | 1019.3 |
| 20260830222231 | 72 | 327 | 2.0 | 2.0 | 0.00 | 0.00 | 0.00 | 77 | 1019.3 |
| 20260830221730 | 72 | 329 | 1.0 | 2.0 | 0.00 | 0.00 | 0.00 | 77 | 1019.3 |
| 20260830221232 | 72 | 345 | 2.0 | 3.0 | 0.00 | 0.00 | 0.00 | 78 | 1019.4 |
| 20260830220731 | 72 | 332 | 4.0 | 8.0 | 0.00 | 0.00 | 0.00 | 78 | 1019.3 |
| 20260830220231 | 73 | 322 | 3.0 | 5.0 | 0.00 | 0.00 | 0.00 | 77 | 1019.3 |
| 20260830215729 | 73 | 322 | 2.0 | 2.0 | 0.00 | 0.00 | 0.00 | 77 | 1019.3 |
| 20260830215230 | 73 | 329 | 2.0 | 3.0 | 0.00 | 0.00 | 0.00 | 76 | 1019.3 |
| 20260830214732 | 74 | 343 | 1.0 | 1.0 | 0.00 | 0.00 | 0.00 | 75 | 1019.3 |
| 20260830214229 | 75 | 335 | 3.0 | 3.0 | 0.00 | 0.00 | 0.00 | 75 | 1019.3 |
| 20260830213728 | 75 | 345 | 2.0 | 3.0 | 0.00 | 0.00 | 0.00 | 75 | 1019.3 |
| 20260830213228 | 74 | 0.0 | 0.0 | 0.00 | 0.00 | 0.00 | 77 | 1019.6 | |
| 20260830212728 | 73 | 324 | 0.0 | 1.0 | 0.00 | 0.00 | 0.00 | 77 | 1019.3 |
| 20260830212228 | 73 | 333 | 1.0 | 2.0 | 0.00 | 0.00 | 0.00 | 77 | 1019.6 |
| 20260830211727 | 73 | 332 | 0.0 | 1.0 | 0.00 | 0.00 | 0.00 | 77 | 1019.4 |
| 20260830211226 | 73 | 332 | 1.0 | 1.0 | 0.00 | 0.00 | 0.00 | 77 | 1019.6 |
| 20260830210727 | 74 | 314 | 2.0 | 3.0 | 0.00 | 0.00 | 0.00 | 76 | 1019.3 |
| 20260830210227 | 74 | 324 | 2.0 | 3.0 | 0.00 | 0.00 | 0.00 | 74 | 1019.3 |
| 20260830205726 | 75 | 318 | 1.0 | 2.0 | 0.00 | 0.00 | 0.00 | 73 | 1019.6 |
| 20260830205225 | 76 | 0.0 | 0.0 | 0.00 | 0.00 | 0.00 | 74 | 1019.6 | |
| 20260830204724 | 76 | 302 | 2.0 | 6.0 | 0.00 | 0.00 | 0.00 | 72 | 1019.6 |
| 20260830204225 | 74 | 348 | 1.0 | 2.0 | 0.00 | 0.00 | 0.00 | 76 | 1019.6 |
| 20260830203724 | 74 | 8 | 1.0 | 2.0 | 0.00 | 0.00 | 0.00 | 79 | 1019.6 |
| 20260830203224 | 74 | 325 | 1.0 | 1.0 | 0.00 | 0.00 | 0.00 | 76 | 1019.6 |
| 20260830202825 | 74 | 0.0 | 0.0 | 0.00 | 0.00 | 0.00 | 75 | 1019.6 | |
| 20260830202224 | 74 | 314 | 1.0 | 2.0 | 0.00 | 0.00 | 0.00 | 73 | 1019.6 |
| 20260830201723 | 75 | 329 | 1.0 | 1.0 | 0.00 | 0.00 | 0.00 | 77 | 1019.6 |
| 20260830201222 | 75 | 337 | 1.0 | 2.0 | 0.00 | 0.00 | 0.00 | 72 | 1019.6 |
| 20260830200721 | 75 | 344 | 2.0 | 5.0 | 0.00 | 0.00 | 0.00 | 71 | 1019.6 |
| 20260830200222 | 75 | 290 | 3.0 | 5.0 | 0.00 | 0.00 | 0.00 | 71 | 1019.6 |
| 20260830195722 | 77 | 345 | 1.0 | 1.0 | 0.00 | 0.00 | 0.00 | 71 | 1019.6 |
| 20260830195221 | 76 | 325 | 0.0 | 1.0 | 0.00 | 0.00 | 0.00 | 74 | 1019.6 |
| 20260830194722 | 75 | 271 | 3.0 | 5.0 | 0.00 | 0.00 | 0.00 | 77 | 1020.0 |
| 20260830194221 | 75 | 345 | 1.0 | 2.0 | 0.00 | 0.00 | 0.00 | 77 | 1020.0 |
| 20260830193721 | 75 | 296 | 1.0 | 2.0 | 0.00 | 0.00 | 0.00 | 76 | 1020.0 |
| 20260830193225 | 74 | 320 | 3.0 | 3.0 | 0.00 | 0.00 | 0.00 | 77 | 1020.0 |
| 20260830192822 | 75 | 301 | 2.0 | 3.0 | 0.00 | 0.00 | 0.00 | 76 | 1020.1 |
| 20260830192220 | 74 | 336 | 1.0 | 1.0 | 0.00 | 0.00 | 0.00 | 73 | 1020.0 |
| 20260830191719 | 75 | 305 | 1.0 | 2.0 | 0.00 | 0.00 | 0.00 | 73 | 1020.3 |
| 20260830191219 | 74 | 117 | 5.0 | 8.0 | 0.00 | 0.00 | 0.00 | 74 | 1020.3 |
| 20260830190720 | 75 | 138 | 5.0 | 7.0 | 0.00 | 0.00 | 0.00 | 74 | 1020.1 |
| 20260830190219 | 74 | 343 | 2.0 | 2.0 | 0.00 | 0.00 | 0.00 | 76 | 1020.3 |
| 20260830185718 | 74 | 188 | 2.0 | 5.0 | 0.00 | 0.00 | 0.00 | 78 | 1020.3 |
| 20260830185217 | 73 | 187 | 3.0 | 5.0 | 0.00 | 0.00 | 0.00 | 80 | 1020.3 |
| 20260830184718 | 73 | 286 | 4.0 | 5.0 | 0.00 | 0.00 | 0.00 | 81 | 1020.7 |
| 20260830184321 | 73 | 18 | 3.0 | 3.0 | 0.00 | 0.00 | 0.00 | 79 | 1020.7 |
| 20260830183216 | 72 | 265 | 3.0 | 5.0 | 0.00 | 0.00 | 0.00 | 83 | 1020.7 |
| 20260830182717 | 72 | 13 | 3.0 | 3.0 | 0.00 | 0.00 | 0.00 | 83 | 1020.7 |
| 20260830182347 | 71 | 207 | 3.0 | 5.0 | 0.00 | 0.00 | 0.00 | 83 | 1021.0 |
| 20260830181745 | 71 | 319 | 2.0 | 3.0 | 0.00 | 0.00 | 0.00 | 83 | 1021.0 |
| 20260830181246 | 71 | 290 | 2.0 | 3.0 | 0.00 | 0.00 | 0.00 | 84 | 1021.0 |
| 20260830180744 | 71 | 352 | 2.0 | 3.0 | 0.00 | 0.00 | 0.00 | 85 | 1021.0 |
| 20260830180245 | 71 | 352 | 2.0 | 2.0 | 0.00 | 0.00 | 0.00 | 85 | 1021.0 |
| 20260830175747 | 71 | 332 | 1.0 | 2.0 | 0.00 | 0.00 | 0.00 | 83 | 1021.0 |
| 20260830175246 | 71 | 330 | 1.0 | 1.0 | 0.00 | 0.00 | 0.00 | 84 | 1021.0 |
| 20260830174742 | 71 | 351 | 2.0 | 2.0 | 0.00 | 0.00 | 0.00 | 83 | 1021.0 |
| 20260830174244 | 71 | 92 | 3.0 | 3.0 | 0.00 | 0.00 | 0.00 | 82 | 1021.4 |
| 20260830173743 | 72 | 339 | 2.0 | 2.0 | 0.00 | 0.00 | 0.00 | 82 | 1021.4 |
| 20260830173242 | 73 | 99 | 3.0 | 3.0 | 0.00 | 0.00 | 0.00 | 81 | 1021.4 |
| 20260830172741 | 72 | 324 | 2.0 | 2.0 | 0.00 | 0.00 | 0.00 | 80 | 1021.4 |
| 20260830172243 | 72 | 312 | 1.0 | 2.0 | 0.00 | 0.00 | 0.00 | 80 | 1021.4 |
| 20260830171742 | 71 | 346 | 1.0 | 1.0 | 0.00 | 0.00 | 0.00 | 80 | 1021.4 |
| 20260830171243 | 71 | 348 | 2.0 | 3.0 | 0.00 | 0.00 | 0.00 | 81 | 1021.4 |
| 20260830170740 | 71 | 6 | 2.0 | 2.0 | 0.00 | 0.00 | 0.00 | 81 | 1021.4 |
| 20260830170241 | 71 | 19 | 2.0 | 3.0 | 0.00 | 0.00 | 0.00 | 82 | 1021.5 |
| 20260830165740 | 71 | 345 | 1.0 | 2.0 | 0.00 | 0.00 | 0.00 | 79 | 1021.7 |
| 20260830165240 | 70 | 357 | 2.0 | 2.0 | 0.00 | 0.00 | 0.00 | 85 | 1021.7 |
| 20260830164742 | 71 | 302 | 2.0 | 3.0 | 0.00 | 0.00 | 0.00 | 80 | 1021.9 |
| 20260830164240 | 71 | 325 | 1.0 | 1.0 | 0.00 | 0.00 | 0.00 | 80 | 1022.1 |
| 20260830163739 | 70 | 339 | 1.0 | 2.0 | 0.00 | 0.00 | 0.00 | 81 | 1021.7 |
| 20260830163239 | 72 | 110 | 3.0 | 3.0 | 0.00 | 0.00 | 0.00 | 78 | 1022.1 |
| 20260830162739 | 73 | 330 | 1.0 | 2.0 | 0.00 | 0.00 | 0.00 | 73 | 1021.9 |
| 20260830162238 | 72 | 284 | 2.0 | 5.0 | 0.00 | 0.00 | 0.00 | 70 | 1022.1 |
| 20260830161738 | 72 | 327 | 1.0 | 1.0 | 0.00 | 0.00 | 0.00 | 71 | 1021.7 |
| 20260830161237 | 71 | 335 | 0.0 | 1.0 | 0.00 | 0.00 | 0.00 | 78 | 1022.1 |
| 20260830160736 | 71 | 332 | 0.0 | 1.0 | 0.00 | 0.00 | 0.00 | 75 | 1022.1 |
| 20260830160237 | 70 | 325 | 2.0 | 5.0 | 0.00 | 0.00 | 0.00 | 71 | 1022.4 |
| 20260830155737 | 70 | 335 | 1.0 | 2.0 | 0.00 | 0.00 | 0.00 | 73 | 1022.4 |
| 20260830155236 | 69 | 330 | 0.0 | 1.0 | 0.00 | 0.00 | 0.00 | 74 | 1022.4 |
| 20260830154236 | 68 | 337 | 1.0 | 1.0 | 0.00 | 0.00 | 0.00 | 84 | 1022.4 |
| 20260830153735 | 68 | 357 | 1.0 | 2.0 | 0.00 | 0.00 | 0.00 | 87 | 1022.6 |
| 20260830153234 | 67 | 338 | 1.0 | 1.0 | 0.00 | 0.00 | 0.00 | 88 | 1022.8 |
| 20260830152734 | 67 | 325 | 1.0 | 1.0 | 0.00 | 0.00 | 0.00 | 88 | 1022.8 |
| 20260830152235 | 67 | 331 | 1.0 | 1.0 | 0.00 | 0.00 | 0.00 | 89 | 1022.8 |
| 20260830151734 | 66 | 307 | 1.0 | 2.0 | 0.00 | 0.00 | 0.00 | 87 | 1022.8 |
| 20260830151233 | 66 | 315 | 1.0 | 2.0 | 0.00 | 0.00 | 0.00 | 89 | 1022.8 |
| 20260830150734 | 66 | 308 | 1.0 | 2.0 | 0.00 | 0.00 | 0.00 | 90 | 1022.9 |
| 20260830150234 | 65 | 313 | 1.0 | 1.0 | 0.00 | 0.00 | 0.00 | 91 | 1022.8 |
| 20260830145733 | 65 | 326 | 2.0 | 2.0 | 0.00 | 0.00 | 0.00 | 91 | 1022.4 |
| 20260830145232 | 65 | 301 | 2.0 | 3.0 | 0.00 | 0.00 | 0.00 | 91 | 1022.6 |